Weather Roundup
Issued by NWS

Home | Current Version | Previous Version | Graphics & Text | Print | Product List | Glossary Off
Versions: 1 2 3 4 5 6 7 8 9 10 11 12 13 14 15 16 17 18 19 20 21 22 23 24 25 26 27 28 29 30 31 32 33 34 35 36 37 38 39 40 41 42 43 44 45 46 47 48 49 50

329
NZUS93 KARX 270410
HRRWXR

CURRENT HOURLY OBSERVATIONS ACROSS
MUCH OF THE UPPER MISSISSIPPI VALLEY
NATIONAL WEATHER SERVICE LA CROSSE WI
1100 PM CDT THU MAY 26 2016


...SOUTHEAST MINNESOTA...


CITY           SKY/WX    TMP DP  RH WIND       PRES   REMARKS
ROCHESTER      CLOUDY    66  60  81 CALM      29.87S
ROCHESTER/MAYO FAIR      69  56  63 SE6       29.87S
WINONA         CLOUDY    70  61  73 CALM      29.86R
AUSTIN         CLOUDY    68  57  68 SW12G18   29.87R
ALBERT LEA     CLOUDY    70  59  68 S5        29.86R
DODGE CENTER   CLOUDY    64  57  77 SE3       29.86F
PRESTON        CLOUDY    64  58  82 CALM      29.88S
OWATONNA       CLOUDY    66  55  68 SE8       29.85S
FARIBAULT      MOCLDY    68  55  64 SE5       29.84R
$$

...ELSEWHERE IN MINNESOTA...


CITY           SKY/WX    TMP DP  RH WIND       PRES   REMARKS
MINNEAPOLIS    CLOUDY    72  52  49 SE3       29.80F
INTNL FALLS    CLEAR     58  52  80 SW5       29.78R
DULUTH         CLOUDY    51  48  89 CALM      29.82F
RED WING       NOT AVBL
REDWOOD FALLS  CLOUDY    68  54  60 CALM      29.79R
MANKATO        CLOUDY    70  52  52 SE10      29.82S
WORTHINGTON    CLOUDY    65  58  78 S6        29.83R
FAIRMONT       PTCLDY    66  55  68 S7        29.83S
$$

...SOUTHWEST WISCONSIN...


CITY           SKY/WX    TMP DP  RH WIND       PRES   REMARKS
LA CROSSE      CLOUDY    68  61  78 E3        29.84S
PRAIRIE DU CHI CLOUDY    67  64  87 CALM      29.86R
BOSCOBEL       MOCLDY    66  63  90 CALM      29.86F
LONE ROCK      MOCLDY    66  60  81 E5        29.87S
PLATTEVILLE    CLOUDY    70  57  64 SE6       29.88S
FORT MC COY    CLOUDY    63  60  90 CALM      29.86F
CAMP DOUGLAS   CLOUDY    61  61 100 N1        29.84F
MAUSTON-NEW LI CLOUDY    63  61  95 CALM      29.84F
VIROQUA        FAIR      66  61  84 CALM      29.88S
WIS DELLS      CLOUDY    63  59  86 S7        29.87S
$$

...ELSEWHERE IN WISCONSIN...


CITY           SKY/WX    TMP DP  RH WIND       PRES   REMARKS
MILWAUKEE      CLOUDY    72  61  68 CALM      29.88F
MADISON        CLOUDY    65  58  78 CALM      29.86F
GREEN BAY      CLEAR     63  60  90 CALM      29.87F
EAU CLAIRE     CLOUDY    64  56  75 CALM      29.84S
BLACK RVR FLS  FAIR      61  61 100 CALM      29.84F
MEDFORD        PTCLDY    67  55  66 SW5       29.87F
WAUSAU         CLEAR     65  60  84 SE3       29.86S
WIS RAPIDS     MOCLDY    62  58  86 E3        29.87F
MARSHFIELD     CLOUDY    64  57  78 CALM      29.86F
RICE LAKE      CLOUDY    64  58  82 CALM      29.85F
$$

...NORTHEAST IOWA...


CITY           SKY/WX    TMP DP  RH WIND       PRES   REMARKS
WATERLOO       CLOUDY    66  56  70 S5        29.86R
DUBUQUE        MOCLDY    70  59  68 E5        29.88F
DECORAH        CLOUDY    70  63  78 SW10      29.87R
MASON CITY     CLOUDY    65  57  75 S8        29.89R
CHARLES CITY   CLOUDY    66  59  77 SW5       29.88F
OELWEIN        CLOUDY    66  59  77 CALM      29.89R
$$

...ELSEWHERE IN IOWA...


CITY           SKY/WX    TMP DP  RH WIND       PRES   REMARKS
DES MOINES     LGT RAIN  63  59  87 SW6       29.88F
IOWA CITY      CLOUDY    71  55  56 S9        29.90F
FORT DODGE     CLOUDY    63  54  72 E5        29.84F
MARSHALLTOWN   LGT RAIN  68  55  63 S26G41    29.80F
CEDAR RAPIDS   CLOUDY    66  59  78 SE8       29.88S
$$

...NORTHERN ILLINOIS...


CITY           SKY/WX    TMP DP  RH WIND       PRES   REMARKS
CHICAGO-OHARE  CLOUDY    76  64  66 E6        29.88S
CHICAGO-MIDWAY CLOUDY    79  63  57 S10       29.90R
MOLINE         CLOUDY    77  63  61 W6        29.86F
ROCKFORD       CLOUDY    71  66  84 S3        29.90R
PEORIA         CLOUDY    74  68  81 S7        29.90F
$$

NOTE: "FAIR" INDICATES FEW OR NO CLOUDS BELOW 12,000 FEET WITH NO
SIGNIFICANT WEATHER AND/OR OBSTRUCTIONS TO VISIBILITY. WIND
SPEEDS ARE IN MILES-PER-HOUR.




USA.gov is the U.S. government's official web portal to all federal, state and local government web resources and services.